Home   Weather   Zagreb   Past weeks
Flag for Croatia

Past Weather in Zagreb, Croatia — Yesterday and Last 2 Weeks

Now
39 °F

Clear.


Feels Like: 34 °F
Forecast: 52 / 36 °F
Wind: 7 mph from Northwest

Location: Zagreb / Pleso

Current Time: Mar 25, 2019 at 5:07:54 am

Latest Report: Mar 25, 2019 at 4:00 am


Visibility: 10 mi

Pressure: 29.95 "Hg

Humidity: 93%

Dew Point: 37 °F

Location of ZagrebLocation

Past Weather in Zagreb — Graph

°F

Zagreb Temperature Yesterday

Maximum temperature yesterday: 70 °F (at 1:30 pm)
Minimum temperature yesterday: 36 °F (at 6:30 am)
Average temperature yesterday: 53 °F

High & Low Weather Summary for the Past Weeks

 TemperatureHumidityPressure
High70 °F (Mar 24, 1:30 pm)100% (Mar 11, 8:00 pm)30.60 "Hg (Mar 11, 8:00 pm)
Low27 °F (Mar 13, 3:00 am)24% (Mar 22, 3:30 pm)29.68 "Hg (Mar 14, 11:30 pm)
Average47 °F63%30.11 "Hg
* Reported Mar 10 6:00 am — Mar 25 3:30 am, Zagreb. Weather by CustomWeather, © 2019

Note: Actual official high and low records may vary slightly from our data, if they occured in-between our weather recording intervals... More about our weather records

Advertising

Zagreb Weather History for the Previous 24 Hours

Scroll right to see more
 ConditionsComfort  
Time TempWeatherWind HumidityBarometerVisibility
3:30 am
Mon, Mar 25
41 °FClear.1 mph87%29.95 "Hg10 mi
3:00 am39 °FClear.5 mph87%29.95 "Hg10 mi
2:30 am41 °FClear.1 mph87%29.98 "Hg10 mi
2:00 am43 °FClear.2 mph81%29.98 "Hg10 mi
1:30 am41 °FClear.5 mph81%29.95 "Hg10 mi
1:00 am43 °FClear.3 mph81%29.98 "Hg10 mi
12:30 am43 °FClear.2 mph81%29.98 "Hg10 mi
12:00 am43 °FClear.3 mph81%29.98 "Hg10 mi
11:30 pm
Sun, Mar 24
45 °FClear.No wind81%29.98 "Hg10 mi
11:00 pm45 °FClear.1 mph81%29.98 "Hg10 mi
10:30 pm46 °FClear.1 mph76%29.98 "Hg10 mi
10:00 pm48 °FClear.No wind71%30.01 "Hg10 mi
9:30 pm50 °FClear.2 mph67%30.01 "Hg10 mi
9:00 pm52 °FClear.No wind58%30.01 "Hg10 mi
8:30 pm54 °FClear.2 mph54%30.01 "Hg10 mi
8:00 pm54 °FClear.No wind58%30.01 "Hg10 mi
7:30 pm57 °FClear.No wind51%30.01 "Hg10 mi
7:00 pm61 °FClear.2 mph42%30.01 "Hg10 mi
6:30 pm64 °FClear.3 mph37%30.01 "Hg10 mi
6:00 pm66 °FSunny.3 mph35%30.01 "Hg10 mi
5:30 pm68 °FPassing clouds.3 mph35%30.01 "HgN/A
5:00 pm70 °FPassing clouds.3 mph31%30.04 "HgN/A
4:30 pm70 °FPassing clouds.3 mph31%30.04 "HgN/A
4:00 pm70 °FSunny.2 mph33%30.04 "Hg10 mi
3:30 pm70 °FSunny.3 mph33%30.07 "Hg10 mi
3:00 pm70 °FSunny.3 mph31%30.07 "Hg10 mi
2:30 pm70 °FPassing clouds.3 mph33%30.07 "HgN/A
2:00 pm70 °FPassing clouds.5 mph33%30.09 "HgN/A
1:30 pm70 °FSunny.3 mph33%30.12 "Hg10 mi
1:00 pm68 °FPassing clouds.3 mph40%30.15 "HgN/A
12:30 pm66 °FSunny.5 mph37%30.15 "Hg10 mi
12:00 pm66 °FSunny.3 mph37%30.18 "Hg10 mi
11:30 am66 °FSunny.No wind40%30.18 "Hg10 mi
11:00 am64 °FSunny.2 mph43%30.21 "Hg10 mi
10:30 am61 °FSunny.1 mph52%30.21 "Hg10 mi
10:00 am57 °FPassing clouds.3 mph55%30.21 "HgN/A
9:30 am54 °FPassing clouds.3 mph67%30.24 "HgN/A
9:00 am52 °FSunny.2 mph67%30.24 "Hg10 mi
8:30 am48 °FSunny.1 mph71%30.24 "Hg10 mi
8:00 am45 °FSunny.No wind81%30.24 "Hg10 mi
7:30 am43 °FPassing clouds.5 mph81%30.24 "HgN/A
7:00 am37 °FSunny.5 mph93%30.24 "Hg10 mi
6:30 am36 °FSunny.3 mph93%30.24 "Hg10 mi
6:00 am37 °FSunny.2 mph87%30.24 "Hg10 mi
5:30 am37 °FClear.No wind93%30.24 "Hg10 mi
5:00 am37 °FClear.3 mph87%30.24 "Hg10 mi
Weather by CustomWeather, © 2019

See weather overview